Regional Weather Roundup
Issued by NWS New Orleans/Baton Rouge, LA

Home | Current Version | Previous Version | Graphics & Text | Print | Product List | Glossary On
Versions: 1 2 3 4 5 6 7 8 9 10 11 12 13 14 15 16 17 18 19 20 21 22 23 24 25 26 27 28 29 30 31 32 33 34 35 36 37 38 39 40 41 42 43 44 45 46 47 48 49 50
426
ASUS44 KLIX 252010
RWRLIX
NEW ORLEANS REGIONAL WEATHER ROUNDUP
NATIONAL WEATHER SERVICE NEW ORLEANS LA
200 PM CST SUN JAN 25 2015

NOTE: "FAIR" INDICATES FEW OR NO CLOUDS BELOW 12,000 FEET WITH NO
      SIGNIFICANT WEATHER AND/OR OBSTRUCTIONS TO VISIBILITY.
      SKY/WX - SKY CONDITION AND SIGNIFICANT WEATHER.
      TMP - AIR TEMPERATURE.     DP    - DEWPOINT TEMPERATURE.
      RH  - RELATIVE HUMIDITY.   PRES  - PRESSURE.
      HI  - HEAT INDEX.          WCI   - WIND CHILL INDEX.

*  THESE STATIONS ARE NOT NWS OR FAA STATIONS AND ARE NOT UNDER
   NWS QUALITY CONTROL.

LAZ038-040-048-061>063-065>067-069-252100-
SOUTHEAST LOUISIANA

CITY           SKY/WX    TMP DP  RH WIND       PRES   REMARKS
N.O. AUDUBON   NOT AVBL
N.O. INTL ARPT MOSUNNY   67  39  35 SW17G25   29.92F
N.O. LAKEFRONT SUNNY     67  40  37 SW20      29.92F
N.O. DOWNTOWN*   N/A     66  39  37 SW13G22   29.93F
SLIDELL        SUNNY     64  39  39 SW12G23   29.90F
BATON ROUGE    SUNNY     68  36  30 SW16G25   29.89F
BOOTHVILLE     SUNNY     62  53  72 W15G24    29.97F
BELLE CHASSE   MOSUNNY   67  34  29 SW15G31   29.93F
BOGALUSA*        N/A     67  36  31 SW13G23   29.89F
GALLIANO*        N/A    N/A N/A N/A MISG      29.97S
NEW ROADS*       N/A     67  42  40 SW16      29.89F
GONZALES*        N/A     66  38  35 SW13G21   29.92F
HAMMOND*       SUNNY     68  32  26 SW14G23   29.90F
HOUMA*         SUNNY     64  37  36 SW16G29   29.96F
PORT FOURCHON* CLEAR     63  52  67 W15       30.02S

$$

MSZ070-080>082-252100-
SOUTHERN MISSISSIPPI

CITY           SKY/WX    TMP DP  RH WIND       PRES   REMARKS
MCCOMB         SUNNY     67  38  34 SW20G26   29.84F
GULFPORT       SUNNY     62  41  46 SW9G18    29.90F
BILOXI         SUNNY     61  43  52 SW16G25   29.90F
PASCAGOULA     SUNNY     61  41  47 SW14G22   29.91F
STENNIS ARPT*  SUNNY     64  32  29 W14G23    29.90F

$$

COASTAL OBSERVATIONS
LAKE AND NEARSHORE STATIONS

STATION/POSITION TIME  TEMP    WIND        PRES    WAVE
                       AIR SEA DIR/SP/G            HT/PER
                 (UTC) (F)     (DEG/KT/KT) (MB)    (FT/S)
PASCAGOULA       2000   57     220/ 11/ 15 1012.6
WAVELAND YACHT   2000   62     240/ 11/ 17 1011.7
GRAND ISLE       2000   61 57  260/ 16/ 21 1015.4
SOUTHWEST PASS   2000   60 47  230/ 12/ 14 1015.5
NEW CANAL        2000   65 53  230/ 10/ 17 1013.4
SHELL BEACH      2000   63 54  230/ 19/ 22 1013.3

OFFSHORE STATIONS

STATION/POSITION TIME  TEMP    WIND        PRES    WAVE
                       AIR SEA DIR/SP/G            HT/PER
                 (UTC) (F)     (DEG/KT/KT) (MB)    (FT/S)
64 S DAUPHIN ISL 1935   62 71  250/ 19/ 23 1014.5    3/ 7

$$




USA.gov is the U.S. government's official web portal to all federal, state and local government web resources and services.